Orbital Elements at Epoch 2459200.5 (2020-Dec-17.0) TDB
Reference: JPL 9 (heliocentric ecliptic J2000)
Element | Value | Uncertainty (1-sigma) | Units |
e | .1713193047529249 | 3.8607e-08 | |
a | 2.406376313384615 | 2.1267e-08 | au |
q | 1.994117596401657 | 9.7006e-08 | au |
i | 3.347465119676335 | 4.7866e-06 | deg |
node | 65.84117227956479 | 0.00013232 | deg |
peri | 199.9430910975341 | 0.00013431 | deg |
M | 300.1538950204745 | 2.6952e-05 | deg |
tp | 2459427.161173147641 (2021-Jul-31.66117315) | 0.00010344 | TDB |
period | 1363.464211431418 3.73 | 1.8075e-05 4.949e-08 | d yr |
n | .2640333328749845 | 3.5002e-09 | deg/d |
Q | 2.818635030367574 | 2.491e-08 | au |
|
| | Orbit Determination Parameters
Additional Information
|